User: anonymous   Login
Location: Unspecified
(0.0000°N, 0.0000°E)
Time: 21:43:20
(UTC+00:00)
Language:

GONETS D1M 1 - Orbit

View from above orbital plane
View from above orbital plane
View from above satellite
View from above satellite

Ground track
Ground track

The orbit data is extracted from the following two-line orbital elements,

1 28908U 05048A   17117.90249811 +.00000004 +00000-0 -36963-4 0  9991
2 28908 082.4654 281.4693 0007705 063.8216 049.5844 12.55476774520106
Epoch (UTC): 27 April 2017 21:39:35
Eccentricity: 0.0007705
inclination: 82.4654°
perigee height: 1435 km
apogee height: 1447 km
right ascension of ascending node: 281.4693°
argument of perigee: 63.8216°
revolutions per day: 12.55476774
mean anomaly at epoch: 49.5844°
orbit number at epoch: 52010

The dashed part of the orbit path shows where the satellite is in the earth's shadow,  

DLR